Metropolis, IL

4:28 PM CST on February 07, 2016 (GMT -0600)
Metropolis

Weather History for KM30 - April, 2013

Change the Weather History Date:

Monday, April 15, 2013

  Actual Average (KPAH) Record (KPAH)
Temperature  
Mean Temperature 70 °F 58 °F  
Max Temperature 80 °F 69 °F 88 °F (1977)
Min Temperature 59 °F 46 °F 29 °F (1950)
Degree Days  
Heating Degree Days 0 8  
Month to date heating degree days 153  
Since 1 July heating degree days 3972  
Cooling Degree Days 4 1  
Month to date cooling degree days 15  
Year to date cooling degree days 22  
Growing Degree Days 20 (Base 50)    
Moisture  
Dew Point 55 °F    
Average Humidity 63    
Maximum Humidity 78    
Minimum Humidity 45    
Precipitation  
Precipitation 0.00 in 0.15 in 2.05 in (1972)
Month to date precipitation 2.18  
Year to date precipitation 13.70  
Snow  
Snow 0.00 in 0.00 in T in (2011)
Month to date snowfall 0.0  
Since 1 July snowfall 9.1  
Snow Depth -    
Sea Level Pressure  
Sea Level Pressure 29.87 in    
Wind  
Wind Speed 7 mph (SSE)    
Max Wind Speed 13 mph    
Max Gust Speed 21 mph    
Visibility 10 miles    
Events      
T = Trace of Precipitation, MM = Missing Value Source: NWS Daily Summary

Daily Weather History Graph

Daily Weather History Graph

Search for Another Location

Airport or City:

Trip Planner

Search our weather history database for the weather conditions in past years. The results will help you decide how hot, cold, wet, or windy it might be!

Date:

Astronomy

Apr. 15, 2013 Rise Set
Actual Time 6:20 AM CDT 7:30 PM CDT
Civil Twilight 5:53 AM CDT 7:57 PM CDT
Nautical Twilight 5:21 AM CDT 8:29 PM CDT
Astronomical Twilight 4:48 AM CDT 9:02 PM CDT
Moon 9:50 AM CDT (4/15) No Moon Set
Length of Visible Light 14h 03m
Length of Day
13h 10m
Waxing Crescent, 25% of the Moon is Illuminated
Apr 15
Waxing Crescent
Apr 18
First Quarter
Apr 25
Full
May 2
Last Quarter
May 9
New

Hourly Weather History & Observations

Time (CDT) Temp. Heat Index Dew Point Humidity Pressure Visibility Wind Dir Wind Speed Gust Speed Precip Events Conditions
12:15 AM 61.7 °F - 49.5 °F 64% 29.83 in 10.0 mi SSE 6.9 mph - N/A   Overcast
12:35 AM 61.7 °F - 49.6 °F 65% 29.83 in 10.0 mi SSE 6.9 mph - N/A   Overcast
12:55 AM 61.7 °F - 50.0 °F 65% 29.84 in 10.0 mi SSE 9.2 mph - N/A   Overcast
1:15 AM 61.7 °F - 50.0 °F 65% 29.84 in 10.0 mi SSE 8.1 mph - N/A   Overcast
1:35 AM 61.7 °F - 50.2 °F 66% 29.85 in 10.0 mi SSE 5.8 mph - N/A   Overcast
1:55 AM 61.3 °F - 50.4 °F 67% 29.85 in 10.0 mi South 4.6 mph - N/A   Overcast
2:15 AM 61.2 °F - 50.5 °F 68% 29.85 in 10.0 mi South 5.8 mph - N/A   Overcast
2:35 AM 60.8 °F - 50.5 °F 69% 29.85 in 10.0 mi SSE 5.8 mph - N/A   Overcast
2:55 AM 60.3 °F - 50.9 °F 71% 29.83 in 10.0 mi SSE 4.6 mph - N/A   Scattered Clouds
3:15 AM 59.2 °F - 50.5 °F 73% 29.83 in 10.0 mi SSE 4.6 mph - N/A   Clear
3:35 AM 59.0 °F - 50.9 °F 74% 29.84 in 10.0 mi SSE 5.8 mph - N/A   Clear
3:55 AM 59.0 °F - 50.9 °F 74% 29.84 in 10.0 mi SSE 6.9 mph - N/A   Scattered Clouds
4:15 AM 59.2 °F - 51.3 °F 75% 29.85 in 10.0 mi SSE 4.6 mph - N/A   Mostly Cloudy
4:35 AM 59.5 °F - 51.4 °F 75% 29.86 in 10.0 mi SSE 4.6 mph - N/A   Overcast
4:55 AM 59.5 °F - 51.8 °F 76% 29.86 in 10.0 mi SSE 6.9 mph - N/A   Overcast
5:15 AM 59.9 °F - 52.0 °F 75% 29.87 in 10.0 mi SSE 3.5 mph - N/A   Overcast
5:35 AM 59.7 °F - 52.0 °F 76% 29.87 in 10.0 mi South 3.5 mph - N/A   Overcast
5:55 AM 59.7 °F - 52.2 °F 76% 29.88 in 10.0 mi South 5.8 mph - N/A   Overcast
6:15 AM 59.5 °F - 52.3 °F 77% 29.89 in 10.0 mi South 3.5 mph - N/A   Overcast
6:35 AM 59.4 °F - 52.5 °F 78% 29.88 in 10.0 mi SSE 4.6 mph - N/A   Overcast
6:55 AM 59.5 °F - 52.7 °F 78% 29.89 in 10.0 mi South 4.6 mph - N/A   Overcast
7:15 AM 59.9 °F - 52.7 °F 77% 29.90 in 10.0 mi South 5.8 mph - N/A   Overcast
7:35 AM 59.9 °F - 52.9 °F 78% 29.90 in 10.0 mi SSE 3.5 mph - N/A   Overcast
7:55 AM 60.4 °F - 53.2 °F 77% 29.90 in 10.0 mi South 4.6 mph - N/A   Overcast
8:15 AM 61.2 °F - 53.4 °F 76% 29.90 in 10.0 mi South 5.8 mph - N/A   Overcast
8:35 AM 61.9 °F - 53.6 °F 74% 29.90 in 10.0 mi SSE 8.1 mph - N/A   Overcast
8:55 AM 63.7 °F - 54.5 °F 72% 29.89 in 10.0 mi South 6.9 mph - N/A   Scattered Clouds
9:15 AM 64.4 °F - 54.9 °F 71% 29.90 in 10.0 mi SSE 6.9 mph - N/A   Clear
9:35 AM 65.8 °F - 55.4 °F 69% 29.91 in 10.0 mi South 8.1 mph - N/A   Clear
9:55 AM 66.7 °F - 55.8 °F 68% 29.93 in 10.0 mi SSW 10.4 mph - N/A   Scattered Clouds
10:15 AM 66.4 °F - 56.1 °F 69% 29.93 in 10.0 mi SSW 5.8 mph - N/A   Overcast
10:35 AM 67.1 °F - 56.3 °F 68% 29.94 in 10.0 mi South 4.6 mph - N/A   Overcast
10:55 AM 68.0 °F - 57.2 °F 68% 29.95 in 10.0 mi WSW 4.6 mph - N/A   Overcast
11:15 AM 69.3 °F - 57.2 °F 65% 29.94 in 10.0 mi SE 3.5 mph - N/A   Mostly Cloudy
11:35 AM 69.8 °F - 57.7 °F 65% 29.94 in 10.0 mi SSW 3.5 mph - N/A   Mostly Cloudy
11:55 AM 70.3 °F - 58.1 °F 65% 29.93 in 10.0 mi SSW 5.8 mph - N/A   Overcast
12:15 PM 72.3 °F - 58.8 °F 62% 29.92 in 10.0 mi South 4.6 mph - N/A   Mostly Cloudy
12:35 PM 72.5 °F - 58.3 °F 61% 29.91 in 10.0 mi SE 6.9 mph - N/A   Scattered Clouds
12:55 PM 74.3 °F - 59.4 °F 60% 29.90 in 10.0 mi SSE 10.4 mph - N/A   Scattered Clouds
1:15 PM 74.5 °F - 58.8 °F 58% 29.89 in 10.0 mi SSE 9.2 mph - N/A   Scattered Clouds
1:35 PM 75.2 °F - 58.8 °F 57% 29.89 in 10.0 mi SSW 12.7 mph - N/A   Scattered Clouds
1:55 PM 75.2 °F - 59.2 °F 57% 29.88 in 10.0 mi South 9.2 mph - N/A   Mostly Cloudy
2:15 PM 77.2 °F - 58.5 °F 52% 29.88 in 10.0 mi SSE 9.2 mph 16.1 mph N/A   Mostly Cloudy
2:35 PM 77.9 °F - 58.6 °F 51% 29.87 in 10.0 mi South 12.7 mph 20.7 mph N/A   Scattered Clouds
2:55 PM 77.4 °F - 58.3 °F 52% 29.87 in 10.0 mi South 10.4 mph 17.3 mph N/A   Scattered Clouds
3:15 PM 77.2 °F - 57.4 °F 50% 29.85 in 10.0 mi South 11.5 mph 18.4 mph N/A   Scattered Clouds
3:35 PM 78.8 °F - 57.9 °F 49% 29.84 in 10.0 mi South 10.4 mph 17.3 mph N/A   Clear
3:55 PM 79.3 °F - 58.3 °F 48% 29.84 in 10.0 mi South 8.1 mph - N/A   Clear
4:15 PM 79.2 °F - 57.6 °F 47% 29.83 in 10.0 mi SSE 11.5 mph 17.3 mph N/A   Clear
4:35 PM 79.7 °F - 57.9 °F 47% 29.83 in 10.0 mi SSE 10.4 mph - N/A   Clear
4:55 PM 79.9 °F - 57.9 °F 47% 29.83 in 10.0 mi SSE 10.4 mph - N/A   Clear
5:15 PM 80.2 °F 80.6 °F 57.9 °F 46% 29.83 in 10.0 mi South 9.2 mph - N/A   Clear
5:35 PM 79.7 °F - 57.4 °F 46% 29.84 in 10.0 mi South 9.2 mph 16.1 mph N/A   Clear
5:55 PM 79.7 °F - 57.2 °F 46% 29.83 in 10.0 mi SSE 6.9 mph - N/A   Clear
6:15 PM 79.7 °F - 56.8 °F 45% 29.83 in 10.0 mi SSE 8.1 mph - N/A   Clear
6:35 PM 79.0 °F - 56.1 °F 45% 29.83 in 10.0 mi South 5.8 mph - N/A   Clear
6:55 PM 78.3 °F - 56.3 °F 47% 29.83 in 10.0 mi South 8.1 mph - N/A   Clear
7:15 PM 77.2 °F - 56.3 °F 48% 29.83 in 10.0 mi SSE 5.8 mph - N/A   Clear
7:55 PM 75.0 °F - 56.3 °F 52% 29.83 in 10.0 mi South 3.5 mph - N/A   Clear
8:15 PM 74.5 °F - 56.3 °F 53% 29.84 in 10.0 mi SSE 3.5 mph - N/A   Clear
8:35 PM 73.6 °F - 56.3 °F 55% 29.85 in 10.0 mi South 3.5 mph - N/A   Clear
8:55 PM 73.4 °F - 56.3 °F 55% 29.86 in 10.0 mi South 3.5 mph - N/A   Clear
9:15 PM 71.8 °F - 56.5 °F 58% 29.87 in 10.0 mi SSE 3.5 mph - N/A   Clear
9:35 PM 71.4 °F - 56.5 °F 59% 29.88 in 10.0 mi Calm Calm - N/A   Clear
9:55 PM 70.9 °F - 56.3 °F 60% 29.89 in 10.0 mi SSE 3.5 mph - N/A   Clear
10:15 PM 71.1 °F - 56.7 °F 60% 29.90 in 10.0 mi South 4.6 mph - N/A   Clear
10:35 PM 70.9 °F - 56.7 °F 61% 29.90 in 10.0 mi South 5.8 mph - N/A   Clear
10:55 PM 70.9 °F - 56.5 °F 60% 29.91 in 10.0 mi South 6.9 mph - N/A   Clear
11:15 PM 70.3 °F - 56.5 °F 61% 29.90 in 10.0 mi South 8.1 mph - N/A   Clear
11:35 PM 70.0 °F - 56.7 °F 63% 29.91 in 10.0 mi South 6.9 mph - N/A   Clear
11:55 PM 69.8 °F - 56.8 °F 63% 29.90 in 10.0 mi SSE 5.8 mph - N/A   Clear